Location: Strawberry
(45.6646°N, 111.9596°W)
Time: 11:22:54
(UTC+00:00)

VELOX 1 - Visible Passes

Search period start: 04 December 2022 00:00
Search period end: 14 December 2022 00:00
Orbit: 622 x 637 km, 98.4° (Epoch: 04 December)

Date Brightness Start Highest point End Pass type
(mag) Time Alt. Az. Time Alt. Az. Time Alt. Az.
04 Dec ? 00:35:24 10° NE 00:38:42 21° E 00:42:00 10° SE visible
04 Dec ? 02:12:15 18° N 02:15:08 40° WNW 02:19:10 10° SW visible
04 Dec ? 11:33:22 10° ESE 11:36:50 26° ENE 11:36:50 26° ENE visible
04 Dec ? 13:09:07 10° SSW 13:13:06 34° W 13:14:11 30° WNW visible
05 Dec ? 00:55:23 11° NE 00:59:03 33° E 01:02:57 10° SSE visible
05 Dec ? 02:32:46 16° NNW 02:35:11 26° WNW 02:38:48 10° WSW visible
05 Dec ? 11:52:59 10° SE 11:57:04 39° ENE 11:57:10 39° ENE visible
05 Dec ? 13:30:02 10° SW 13:33:28 22° W 13:34:31 20° WNW visible
06 Dec ? 01:15:53 15° NNE 01:19:20 53° E 01:23:34 10° S visible
06 Dec ? 02:53:14 14° NNW 02:55:12 18° WNW 02:58:05 10° WSW visible
06 Dec ? 12:12:52 10° SSE 12:17:11 63° ENE 12:17:30 61° NE visible
06 Dec ? 13:51:33 10° WSW 13:53:50 14° W 13:54:51 13° WNW visible
07 Dec ? 01:36:22 18° NNE 01:39:33 86° E 01:43:54 10° SSW visible
07 Dec ? 03:13:43 10° NW 03:15:09 12° WNW 03:16:43 10° W visible
07 Dec ? 10:59:54 10° E 11:00:28 11° ENE 11:00:28 11° ENE visible
07 Dec ? 12:32:58 10° SSE 12:37:21 82° WSW 12:37:50 70° NW visible
08 Dec ? 00:20:41 10° ENE 00:23:05 14° E 00:25:28 10° SE visible
08 Dec ? 01:56:50 20° N 01:59:43 59° WNW 02:03:59 10° SSW visible
08 Dec ? 11:18:39 10° ESE 11:20:48 18° ENE 11:20:48 18° ENE visible
08 Dec ? 12:53:19 10° S 12:57:35 50° W 12:58:09 47° WNW visible
09 Dec ? 00:40:01 10° NE 00:43:27 23° E 00:46:54 10° SSE visible
09 Dec ? 02:17:17 19° NNW 02:19:49 37° WNW 02:23:49 10° SW visible
09 Dec ? 11:37:58 10° SE 11:41:07 27° E 11:41:07 27° E visible
09 Dec ? 13:13:57 10° SSW 13:17:51 31° W 13:18:29 30° W visible
10 Dec ? 01:00:22 13° NE 01:03:46 35° E 01:07:46 10° SSE visible
10 Dec ? 02:37:44 17° NNW 02:39:52 24° WNW 02:43:22 10° WSW visible
10 Dec ? 11:57:37 10° SE 12:01:27 42° E 12:01:27 42° E visible
10 Dec ? 13:34:56 10° SW 13:38:11 20° W 13:38:48 20° W visible
11 Dec ? 01:20:48 17° NNE 01:24:02 58° ESE 01:28:17 10° S visible
11 Dec ? 02:58:10 14° NW 02:59:50 16° WNW 03:02:33 10° W visible
11 Dec ? 12:17:31 10° SSE 12:21:47 68° E 12:21:47 68° E visible
11 Dec ? 13:56:36 10° WSW 13:58:34 13° W 13:59:08 12° W visible
12 Dec ? 01:41:14 20° NNE 01:44:13 87° W 01:48:33 10° SSW visible
12 Dec ? 03:18:37 10° NW 03:19:45 11° WNW 03:20:53 10° WNW visible
12 Dec ? 11:04:15 10° E 11:04:45 11° E 11:04:45 11° E visible
12 Dec ? 12:37:39 10° S 12:42:01 75° WSW 12:42:06 75° W visible
13 Dec ? 00:25:07 10° NE 00:27:46 16° E 00:30:23 10° SE visible
13 Dec ? 02:01:39 21° N 02:04:21 54° WNW 02:08:34 10° SSW visible
13 Dec ? 11:23:07 10° ESE 11:25:05 18° E 11:25:05 18° E visible
13 Dec ? 12:58:01 10° S 13:02:13 46° W 13:02:26 46° W visible
